When you browse on this site, cookies collect data to enhance your experience and personalize the content and advertising you see.
Visit our Privacy Policy to learn more. By continuing to use the site, you agree to this use of cookies and data.
  • In Sweden
  • List of Countries
  • For 7 days
  • Water Temperature
  • Satellite Maps
  • Weather Map
  • Weather Widgets
  • user-avatar
    Login

    Hourly Weather Bani Walid

    Today, 21 May, Tuesday

    Time Temperature Precipitation Wind Pressure Humidity
    00:00 +25°C° 0 mm 5 mps 743 mmHg 43%
    01:00 +25°C° 0 mm 5 mps 743 mmHg 46%
    02:00 +23°C° 0 mm 5 mps 743 mmHg 49%
    03:00 +23°C° 0 mm 5 mps 743 mmHg 51%
    04:00 +22°C° 0 mm 5 mps 743 mmHg 54%
    05:00 +22°C° 0 mm 6 mps 743 mmHg 55%
    06:00 +22°C° 0 mm 6 mps 744 mmHg 56%
    07:00 +22°C° 0 mm 6 mps 744 mmHg 57%
    08:00 +23°C° 0 mm 6 mps 744 mmHg 51%
    09:00 +24°C° 0 mm 6 mps 744 mmHg 45%
    10:00 +26°C° 0 mm 7 mps 744 mmHg 39%
    11:00 +27°C° 0 mm 7 mps 744 mmHg 35%
    12:00 +28°C° 0 mm 7 mps 744 mmHg 31%
    13:00 +29°C° 0 mm 7 mps 743 mmHg 27%
    14:00 +29°C° 0 mm 8 mps 743 mmHg 27%
    15:00 +28°C° 0 mm 9 mps 743 mmHg 27%
    16:00 +28°C° 0 mm 10 mps 742 mmHg 27%
    17:00 +27°C° 0 mm 9 mps 742 mmHg 29%
    18:00 +24°C° 0 mm 8 mps 743 mmHg 31%
    19:00 +23°C° 0 mm 8 mps 743 mmHg 34%
    20:00 +23°C° 0 mm 8 mps 743 mmHg 37%
    21:00 +22°C° 0 mm 7 mps 743 mmHg 41%
    22:00 +21°C° 0 mm 7 mps 743 mmHg 44%
    23:00 +21°C° 0 mm 7 mps 743 mmHg 46%

    Tomorrow, 22 May, Wednesday

    Time Temperature Precipitation Wind Pressure Humidity
    00:00 +21°C° 0 mm 6 mps 743 mmHg 47%
    01:00 +21°C° 0 mm 6 mps 743 mmHg 49%
    02:00 +20°C° 0 mm 6 mps 743 mmHg 50%
    03:00 +20°C° 0 mm 6 mps 743 mmHg 51%
    04:00 +20°C° 0 mm 6 mps 742 mmHg 53%
    05:00 +20°C° 0 mm 7 mps 742 mmHg 52%
    06:00 +20°C° 0 mm 8 mps 742 mmHg 51%
    07:00 +21°C° 0 mm 9 mps 742 mmHg 49%
    08:00 +22°C° 0 mm 9 mps 743 mmHg 43%
    09:00 +24°C° 0 mm 9 mps 743 mmHg 36%
    10:00 +26°C° 0 mm 9 mps 743 mmHg 29%
    11:00 +27°C° 0 mm 10 mps 743 mmHg 27%
    12:00 +28°C° 0 mm 10 mps 743 mmHg 25%
    13:00 +29°C° 0 mm 11 mps 742 mmHg 24%
    14:00 +28°C° 0 mm 10 mps 742 mmHg 25%
    15:00 +28°C° 0 mm 10 mps 742 mmHg 26%
    16:00 +27°C° 0 mm 10 mps 742 mmHg 27%
    17:00 +26°C° 0.1 mm 10 mps 742 mmHg 29%
    18:00 +24°C° 0.1 mm 9 mps 742 mmHg 31%
    19:00 +23°C° 0.1 mm 9 mps 742 mmHg 34%
    20:00 +22°C° 0 mm 8 mps 743 mmHg 38%
    21:00 +21°C° 0 mm 7 mps 744 mmHg 43%
    22:00 +21°C° 0 mm 5 mps 744 mmHg 47%
    23:00 +20°C° 0 mm 5 mps 744 mmHg 53%

    Day after tomorrow, 23 May, Thursday

    Time Temperature Precipitation Wind Pressure Humidity
    00:00 +20°C° 0 mm 5 mps 744 mmHg 58%
    01:00 +19°C° 0 mm 5 mps 744 mmHg 63%
    02:00 +19°C° 0 mm 5 mps 744 mmHg 67%
    03:00 +17°C° 0 mm 5 mps 744 mmHg 71%
    04:00 +17°C° 0 mm 5 mps 744 mmHg 75%
    05:00 +17°C° 0 mm 5 mps 744 mmHg 74%
    06:00 +19°C° 0 mm 5 mps 744 mmHg 72%
    07:00 +19°C° 0 mm 5 mps 745 mmHg 71%
    08:00 +21°C° 0 mm 5 mps 745 mmHg 63%
    09:00 +23°C° 0 mm 6 mps 745 mmHg 55%
    10:00 +24°C° 0 mm 6 mps 745 mmHg 48%
    11:00 +27°C° 0 mm 6 mps 745 mmHg 41%
    12:00 +28°C° 0 mm 7 mps 745 mmHg 35%
    13:00 +29°C° 0 mm 7 mps 745 mmHg 28%
    14:00 +29°C° 0 mm 7 mps 745 mmHg 27%
    15:00 +29°C° 0 mm 7 mps 744 mmHg 26%
    16:00 +29°C° 0 mm 7 mps 744 mmHg 25%
    17:00 +27°C° 0 mm 7 mps 744 mmHg 30%
    18:00 +26°C° 0 mm 7 mps 745 mmHg 34%
    19:00 +24°C° 0 mm 7 mps 745 mmHg 38%
    20:00 +23°C° 0 mm 6 mps 746 mmHg 42%
    21:00 +22°C° 0 mm 5 mps 746 mmHg 47%
    22:00 +21°C° 0 mm 5 mps 746 mmHg 51%
    23:00 +20°C° 0 mm 4 mps 746 mmHg 53%

    24 May, Friday

    Time Temperature Precipitation Wind Pressure Humidity
    00:00 +20°C° 0 mm 3 mps 746 mmHg 56%
    01:00 +19°C° 0 mm 2 mps 746 mmHg 58%
    02:00 +20°C° 0 mm 1 mps 746 mmHg 60%
    03:00 +19°C° 0 mm 1 mps 745 mmHg 61%
    04:00 +19°C° 0 mm 1 mps 745 mmHg 62%
    05:00 +19°C° 0 mm 1 mps 745 mmHg 57%
    06:00 +20°C° 0 mm 1 mps 745 mmHg 53%
    07:00 +21°C° 0 mm 1 mps 746 mmHg 48%
    08:00 +22°C° 0 mm 1 mps 746 mmHg 41%
    09:00 +24°C° 0 mm 1 mps 746 mmHg 33%
    10:00 +25°C° 0 mm 1 mps 746 mmHg 25%
    11:00 +27°C° 0 mm 2 mps 746 mmHg 21%
    12:00 +28°C° 0 mm 2 mps 745 mmHg 18%
    13:00 +30°C° 0 mm 3 mps 745 mmHg 14%
    14:00 +30°C° 0 mm 3 mps 745 mmHg 13%
    15:00 +32°C° 0 mm 4 mps 744 mmHg 13%
    16:00 +32°C° 0 mm 4 mps 744 mmHg 12%
    17:00 +30°C° 0 mm 5 mps 744 mmHg 15%
    18:00 +29°C° 0 mm 6 mps 744 mmHg 18%
    19:00 +27°C° 0 mm 6 mps 744 mmHg 21%
    20:00 +26°C° 0 mm 6 mps 745 mmHg 28%
    21:00 +25°C° 0 mm 5 mps 745 mmHg 35%
    22:00 +22°C° 0 mm 4 mps 745 mmHg 42%
    23:00 +22°C° 0 mm 4 mps 745 mmHg 44%

    25 May, Saturday

    Time Temperature Precipitation Wind Pressure Humidity
    00:00 +21°C° 0 mm 3 mps 744 mmHg 46%
    01:00 +20°C° 0 mm 3 mps 744 mmHg 48%
    02:00 +20°C° 0 mm 3 mps 743 mmHg 48%
    03:00 +20°C° 0 mm 2 mps 743 mmHg 48%
    04:00 +19°C° 0 mm 2 mps 742 mmHg 47%
    05:00 +20°C° 0 mm 3 mps 743 mmHg 41%
    06:00 +21°C° 0 mm 3 mps 743 mmHg 36%
    07:00 +22°C° 0 mm 4 mps 743 mmHg 30%
    08:00 +26°C° 0 mm 5 mps 743 mmHg 25%
    09:00 +28°C° 0 mm 6 mps 743 mmHg 19%
    10:00 +32°C° 0 mm 6 mps 743 mmHg 14%
    11:00 +33°C° 0 mm 6 mps 742 mmHg 13%
    12:00 +34°C° 0 mm 6 mps 741 mmHg 12%
    13:00 +36°C° 0 mm 6 mps 741 mmHg 11%
    14:00 +36°C° 0 mm 6 mps 740 mmHg 11%
    15:00 +38°C° 0 mm 6 mps 739 mmHg 11%
    16:00 +39°C° 0 mm 7 mps 739 mmHg 11%
    17:00 +35°C° 0.1 mm 8 mps 739 mmHg 15%
    18:00 +33°C° 0.1 mm 8 mps 739 mmHg 19%
    19:00 +31°C° 0.1 mm 9 mps 739 mmHg 23%
    20:00 +28°C° 0 mm 9 mps 739 mmHg 25%
    21:00 +27°C° 0 mm 9 mps 739 mmHg 27%
    22:00 +26°C° 0 mm 8 mps 739 mmHg 30%
    23:00 +26°C° 0.2 mm 7 mps 738 mmHg 31%

    26 May, Sunday

    Time Temperature Precipitation Wind Pressure Humidity
    00:00 +26°C° 0.2 mm 7 mps 738 mmHg 32%
    01:00 +24°C° 0.2 mm 6 mps 737 mmHg 33%
    02:00 +24°C° 0.4 mm 6 mps 737 mmHg 35%
    03:00 +23°C° 0.4 mm 5 mps 737 mmHg 37%
    04:00 +23°C° 0.4 mm 5 mps 736 mmHg 39%
    05:00 +23°C° 0 mm 5 mps 736 mmHg 36%
    06:00 +25°C° 0 mm 4 mps 736 mmHg 33%
    07:00 +26°C° 0 mm 4 mps 736 mmHg 29%
    08:00 +28°C° 0 mm 4 mps 736 mmHg 27%
    09:00 +29°C° 0 mm 5 mps 736 mmHg 24%
    10:00 +32°C° 0 mm 5 mps 736 mmHg 22%
    11:00 +33°C° 0 mm 6 mps 736 mmHg 22%
    12:00 +34°C° 0 mm 7 mps 736 mmHg 22%
    13:00 +34°C° 0 mm 9 mps 735 mmHg 23%
    14:00 +34°C° 0 mm 10 mps 736 mmHg 24%
    15:00 +33°C° 0 mm 11 mps 736 mmHg 25%
    16:00 +33°C° 0 mm 12 mps 737 mmHg 26%
    17:00 +31°C° 0 mm 12 mps 737 mmHg 32%
    18:00 +27°C° 0 mm 12 mps 738 mmHg 38%
    19:00 +24°C° 0 mm 12 mps 739 mmHg 44%
    20:00 +23°C° 0 mm 11 mps 739 mmHg 48%
    21:00 +22°C° 0 mm 10 mps 740 mmHg 51%
    22:00 +21°C° 0 mm 9 mps 740 mmHg 54%
    23:00 +21°C° 0 mm 9 mps 740 mmHg 57%
    Show more